Location: Lafig�re
(44.4503°N, 4.0357°E)
Time: 15:21:33
(UTC+00:00)

Cosmos 1805 - Pass Details

Date: 24 September 2020
Orbit: 524 x 531 km, 82.5° (Epoch: 20 October)

Event Time Altitude Azimuth Distance (km) Brightness Sun altitude
Rises 19:20:41 0° 190° (S) 2,658 6.7 -19.1°
Reaches altitude 10° 19:22:48 10° 192° (SSW) 1,774 5.8 -19.4°
Maximum altitude 19:26:42 77° 279° (W) 551 3.3 -20.1°
Drops below altitude 10° 19:30:39 10° 6° (N) 1,792 6.1 -20.7°
Sets 19:32:48 0° 8° (N) 2,687 7.0 -21.1°
